Time,TemperatureF,DewpointF,PressureIn,WindDirection,WindDirectionDegrees,WindSpeedMPH,WindSpeedGustMPH,Humidity,HourlyPrecipIn,Conditions,Clouds,dailyrainin,SoftwareType,DateUTC
2013-11-10 00:02:00,47.0,23.0,-100.00,North,6,0.0,1.0,38,0.00,,,-99.99,,2013-11-10 08:02:00,
2013-11-10 00:21:00,46.0,22.0,-100.00,North,11,3.0,3.0,39,0.00,,,-99.99,,2013-11-10 08:21:00,
2013-11-10 01:12:00,47.0,21.0,-100.00,North,-999,0.0,0.0,34,0.00,,,-99.99,,2013-11-10 09:12:00,
2013-11-10 01:21:00,47.0,19.0,-100.00,North,-999,0.0,0.0,33,0.00,,,-99.99,,2013-11-10 09:21:00,
2013-11-10 01:33:00,47.0,19.0,-100.00,West,265,1.0,2.0,33,0.00,,,-99.99,,2013-11-10 09:33:00,
2013-11-10 02:42:00,45.0,21.0,-100.00,North,-999,0.0,0.0,38,0.00,,,-99.99,,2013-11-10 10:42:00,
2013-11-10 02:52:00,46.0,21.0,-100.00,ESE,114,0.0,2.0,37,0.00,,,-99.99,,2013-11-10 10:52:00,
2013-11-10 03:02:00,46.0,21.0,-100.00,ESE,114,0.0,2.0,37,0.00,,,-99.99,,2013-11-10 11:02:00,
2013-11-10 03:52:00,44.0,19.0,-100.00,SE,137,0.0,1.0,36,0.00,,,-99.99,,2013-11-10 11:52:00,
2013-11-10 04:02:00,44.0,19.0,-100.00,SW,230,1.0,2.0,36,0.00,,,-99.99,,2013-11-10 12:02:00,
2013-11-10 04:12:00,44.0,18.0,-100.00,SW,230,1.0,2.0,35,0.00,,,-99.99,,2013-11-10 12:12:00,
2013-11-10 04:21:00,44.0,18.0,-100.00,SW,230,1.0,2.0,35,0.00,,,-99.99,,2013-11-10 12:21:00,
2013-11-10 04:52:00,45.0,17.0,-100.00,North,357,2.0,4.0,33,0.00,,,-99.99,,2013-11-10 12:52:00,
2013-11-10 05:01:00,45.0,17.0,-100.00,North,357,2.0,4.0,33,0.00,,,-99.99,,2013-11-10 13:01:00,
2013-11-10 10:42:00,54.0,21.0,-100.00,ENE,75,3.0,5.0,28,0.00,,,-99.99,,2013-11-10 18:42:00,
2013-11-10 11:11:00,57.0,22.0,-100.00,NNE,13,2.0,3.0,25,0.00,,,-99.99,,2013-11-10 19:11:00,
2013-11-10 12:42:00,59.0,19.0,-100.00,SSE,151,4.0,6.0,20,0.00,,,-99.99,,2013-11-10 20:42:00,
2013-11-10 12:52:00,61.0,20.0,-100.00,ESE,119,3.0,6.0,20,0.00,,,-99.99,,2013-11-10 20:52:00,
2013-11-10 13:11:00,62.0,19.0,-100.00,ESE,119,3.0,6.0,19,0.00,,,-99.99,,2013-11-10 21:11:00,
2013-11-10 13:22:00,62.0,18.0,-100.00,SE,144,5.0,7.0,18,0.00,,,-99.99,,2013-11-10 21:22:00,
2013-11-10 13:33:00,62.0,18.0,-100.00,SE,144,5.0,7.0,18,0.00,,,-99.99,,2013-11-10 21:33:00,
2013-11-10 13:54:00,62.0,19.0,-100.00,ESE,103,3.0,5.0,19,0.00,,,-99.99,,2013-11-10 21:54:00,
2013-11-10 14:13:00,63.0,19.0,-100.00,ESE,103,3.0,5.0,18,0.00,,,-99.99,,2013-11-10 22:13:00,
2013-11-10 14:23:00,63.0,19.0,-100.00,ESE,103,3.0,5.0,18,0.00,,,-99.99,,2013-11-10 22:23:00,
2013-11-10 14:43:00,64.0,16.0,-100.00,ENE,66,1.0,2.0,15,0.00,,,-99.99,,2013-11-10 22:43:00,
2013-11-10 14:54:00,64.0,16.0,-100.00,SSE,154,5.0,8.0,16,0.00,,,-99.99,,2013-11-10 22:54:00,
2013-11-10 15:11:00,63.0,16.0,-100.00,SSE,154,5.0,8.0,16,0.00,,,-99.99,,2013-11-10 23:11:00,
2013-11-10 15:22:00,63.0,15.0,-100.00,SSE,148,3.0,6.0,15,0.00,,,-99.99,,2013-11-10 23:22:00,
2013-11-10 15:34:00,63.0,15.0,-100.00,SSE,148,3.0,6.0,15,0.00,,,-99.99,,2013-11-10 23:34:00,
2013-11-10 15:43:00,63.0,15.0,-100.00,SSE,148,3.0,6.0,15,0.00,,,-99.99,,2013-11-10 23:43:00,
2013-11-10 15:52:00,63.0,15.0,-100.00,SSE,148,3.0,6.0,15,0.00,,,-99.99,,2013-11-10 23:52:00,
2013-11-10 16:22:00,62.0,16.0,-100.00,SSE,162,4.0,5.0,16,0.00,,,-99.99,,2013-11-11 00:22:00,
2013-11-10 16:42:00,60.0,17.0,-100.00,ESE,112,2.0,4.0,18,0.00,,,-99.99,,2013-11-11 00:42:00,
2013-11-10 16:52:00,58.0,17.0,-100.00,ENE,76,2.0,5.0,20,0.00,,,-99.99,,2013-11-11 00:52:00,
2013-11-10 17:11:00,57.0,14.0,-100.00,ENE,76,2.0,5.0,18,0.00,,,-99.99,,2013-11-11 01:11:00,
2013-11-10 17:22:00,57.0,15.0,-100.00,North,10,4.0,8.0,19,0.00,,,-99.99,,2013-11-11 01:22:00,
2013-11-10 17:32:00,57.0,15.0,-100.00,WSW,244,3.0,4.0,19,0.00,,,-99.99,,2013-11-11 01:32:00,
2013-11-10 17:52:00,56.0,15.0,-100.00,WSW,244,3.0,4.0,20,0.00,,,-99.99,,2013-11-11 01:52:00,
2013-11-10 18:02:00,56.0,15.0,-100.00,WSW,244,3.0,4.0,20,0.00,,,-99.99,,2013-11-11 02:02:00,
2013-11-10 18:21:00,55.0,15.0,-100.00,North,359,5.0,7.0,20,0.00,,,-99.99,,2013-11-11 02:21:00,
2013-11-10 18:42:00,54.0,15.0,-100.00,NNE,16,3.0,5.0,21,0.00,,,-99.99,,2013-11-11 02:42:00,
2013-11-10 18:52:00,54.0,15.0,-100.00,South,179,2.0,3.0,21,0.00,,,-99.99,,2013-11-11 02:52:00,
2013-11-10 19:11:00,53.0,15.0,-100.00,South,179,2.0,3.0,22,0.00,,,-99.99,,2013-11-11 03:11:00,
2013-11-10 19:21:00,53.0,16.0,-100.00,NNW,329,2.0,4.0,22,0.00,,,-99.99,,2013-11-11 03:21:00,
2013-11-10 19:34:00,53.0,16.0,-100.00,NNE,24,5.0,7.0,22,0.00,,,-99.99,,2013-11-11 03:34:00,
2013-11-10 19:55:00,53.0,16.0,-100.00,SSW,205,0.0,1.0,23,0.00,,,-99.99,,2013-11-11 03:55:00,
2013-11-10 20:14:00,51.0,15.0,-100.00,SSW,205,0.0,1.0,23,0.00,,,-99.99,,2013-11-11 04:14:00,
2013-11-10 20:24:00,51.0,15.0,-100.00,SSW,205,0.0,1.0,23,0.00,,,-99.99,,2013-11-11 04:24:00,
2013-11-10 21:23:00,52.0,12.0,-100.00,NNE,24,4.0,5.0,19,0.00,,,-99.99,,2013-11-11 05:23:00,
2013-11-10 21:34:00,52.0,12.0,-100.00,North,0,4.0,6.0,19,0.00,,,-99.99,,2013-11-11 05:34:00,
2013-11-10 21:54:00,52.0,12.0,-100.00,North,1,5.0,6.0,19,0.00,,,-99.99,,2013-11-11 05:54:00,
2013-11-10 22:22:00,51.0,13.0,-100.00,West,277,1.0,1.0,21,0.00,,,-99.99,,2013-11-11 06:22:00,
2013-11-10 22:32:00,51.0,13.0,-100.00,West,277,1.0,1.0,21,0.00,,,-99.99,,2013-11-11 06:32:00,
2013-11-10 22:42:00,51.0,13.0,-100.00,West,277,1.0,1.0,21,0.00,,,-99.99,,2013-11-11 06:42:00,
2013-11-10 22:52:00,51.0,10.0,-100.00,NW,305,1.0,3.0,19,0.00,,,-99.99,,2013-11-11 06:52:00,
2013-11-10 23:12:00,50.0,9.0,-100.00,NW,305,1.0,3.0,19,0.00,,,-99.99,,2013-11-11 07:12:00,
2013-11-10 23:21:00,50.0,6.0,-100.00,WSW,244,1.0,3.0,17,0.00,,,-99.99,,2013-11-11 07:21:00,
2013-11-10 23:32:00,50.0,6.0,-100.00,WNW,299,0.0,2.0,17,0.00,,,-99.99,,2013-11-11 07:32:00,